Content
SEND FEEDBACK

Daily
Averages
Monthly
Summary
United States of America

MILAN, MICHIGAN


Home > North America > United States > Michigan
Elevation: 660 feet     Latitude: 42 05N     Longitude: 083 35W

WEATHER
 
SELECT A DAY
Number of Records: 202,585;   Date Range: 1/1/95 - 7/26/14
 
SHARE

PRINT THIS DATA

[ ← Previous Day ]
WEATHER ALMANAC - MARCH 28, 2013
[ Next Day → ]
[ °C ]   °F
Weather ElementAverageHighLow
Temperature43.7 °F54 °F (3:53 pm)32 °F (5:53 am)
Dewpoint23.1 °F25 °F (8:53 am)21 °F (2:53 am)
Humidity46.6 %70 % (7:53 am)29 % (2:53 pm)
Barometer30.24 in30.26 in (9:53 am)30.21 in (3:53 am)
Wind Speed10.1 mph16.1 mph (11:53 am)
Wind Gust26.5 mph (2:53 pm)
Weather ElementAverage
Visibility10 mi
Wind DirectionWNW (303.9 °)

Weather ElementTotal
Precipitation---
Heating Degree Days22 (Base 65)
Averaged from 23 records on March 28, 2013
WEATHER CONDITIONS BREAKOUT
WIND DIRECTION BREAKOUT
WEATHER BY HOUR - MARCH 28, 2013
[ °C ]   °F
Local TimeTemperatureDewpointHumidityBarometerVisibilityWind DirectionWind SpeedGust SpeedPrecipitationEventsConditions
1:53 AM37.0 °F21.9 °F54 %30.22 in10.0 miWNW (300°)12.7 mphOvercast
2:53 AM36.0 °F21.0 °F55 %30.22 in10.0 miWNW (300°)11.5 mphOvercast
3:53 AM35.1 °F21.0 °F57 %30.21 in10.0 miWNW (300°)10.4 mphOvercast
4:53 AM34.0 °F21.0 °F59 %30.21 in10.0 miWNW (300°)12.7 mphScattered Clouds
5:53 AM32.0 °F21.9 °F66 %30.21 in10.0 miWNW (290°)9.2 mphClear
6:53 AM32.0 °F23.0 °F69 %30.22 in10.0 miWNW (290°)10.4 mphPartly Cloudy
7:53 AM33.1 °F24.1 °F70 %30.24 in10.0 miWNW (300°)8.1 mphScattered Clouds
8:53 AM36.0 °F25.0 °F64 %30.25 in10.0 miWNW (300°)10.4 mphOvercast
9:53 AM37.9 °F25.0 °F60 %30.26 in10.0 miWNW (300°)13.8 mph18.4 mphOvercast
10:53 AM43.0 °F25.0 °F49 %30.26 in10.0 miNW (320°)11.5 mphOvercast
11:53 AM48.9 °F24.1 °F38 %30.26 in10.0 miNW (310°)16.1 mph20.7 mphMostly Cloudy
12:53 PM48.9 °F21.9 °F35 %30.25 in10.0 miNW (320°)10.4 mph23.0 mphOvercast
1:53 PM52.0 °F21.0 °F30 %30.24 in10.0 miNorth (350°)10.4 mphMostly Cloudy
2:53 PM53.1 °F21.0 °F29 %30.23 in10.0 miWNW (300°)12.7 mph26.5 mphMostly Cloudy
3:53 PM54.0 °F21.9 °F29 %30.22 in10.0 miWest (260°)11.5 mphOvercast
4:53 PM54.0 °F21.9 °F29 %30.22 in10.0 miWest (260°)6.9 mphOvercast
5:53 PM53.1 °F24.1 °F32 %30.22 in10.0 miWNW (290°)10.4 mphOvercast
6:53 PM51.1 °F24.1 °F35 %30.23 in10.0 miNW (320°)9.2 mphOvercast
7:53 PM50.0 °F24.1 °F36 %30.23 in10.0 miNW (310°)8.1 mphOvercast
8:53 PM48.0 °F25.0 °F41 %30.24 in10.0 miNW (320°)6.9 mphOvercast
9:53 PM48.0 °F24.1 °F39 %30.25 in10.0 miNNW (330°)3.5 mphOvercast
10:53 PM44.1 °F25.0 °F47 %30.26 in10.0 miNW (310°)5.8 mphOvercast
11:53 PM43.0 °F25.0 °F49 %30.26 in10.0 miNW (310°)10.4 mphMostly Cloudy
Hourly data recorded from KYIP, located miles away from Milan, Michigan







STORIES FROM OUR PARTNERS